Location: Berlise
(49.6641°N, 4.1077°E)
Time: 17:52:53
(UTC+00:00)

Cosmos 1814 Rocket - Pass Details

Date: 27 January 2021
Orbit: 744 x 787 km, 74.1° (Epoch: 26 February)

Event Time Altitude Azimuth Distance (km) Brightness Sun altitude
Exits shadow 05:03:49 42° 224° (SW) 1,049 4.4 -22.3°
Maximum altitude 05:05:29 71° 295° (WNW) 789 3.8 -22.1°
Drops below altitude 10° 05:10:37 10° 20° (NNE) 2,274 6.6 -21.2°
Sets 05:13:00 0° 23° (NNE) 3,205 7.5 -20.9°
